Location: Larrial
(48.2758°N, 4.5331°W)
Time: 23:06:54
(UTC+00:00)

AAUSAT CUBESAT 2 - Pass Details

Date: 04 December 2021
Orbit: 571 x 586 km, 97.5° (Epoch: 19 January)

Event Time Altitude Azimuth Distance (km) Brightness Sun altitude
Rises 05:26:14 0° 14° (NNE) 2,798 ? -23.3°
Reaches altitude 10° 05:28:24 10° 17° (NNE) 1,897 ? -22.9°
Maximum altitude 05:32:30 71° 102° (ESE) 616 ? -22.3°
Drops below altitude 10° 05:36:36 10° 187° (S) 1,890 ? -21.6°
Sets 05:38:45 0° 189° (S) 2,787 ? -21.2°
